Lamar, CO

4:01 AM MST on December 12, 2019 (GMT -0700)
Lamar Municipal

Weather History for KLAA - October, 2019

Change the Weather History Date:

Sunday, October 13, 2019

  Actual Average Record
Temperature  
Mean Temperature 50 °F 54 °F  
Max Temperature 76 °F 72 °F 93 °F (1991)
Min Temperature 23 °F 37 °F 23 °F (2001)
Degree Days  
Heating Degree Days 15 11  
Month to date heating degree days 156 114  
Since 1 July heating degree days 162 197  
Cooling Degree Days 0 0  
Month to date cooling degree days 1 8  
Year to date cooling degree days 1406 1120  
Moisture  
Dew Point 13 °F    
Average Humidity 34    
Maximum Humidity 58    
Minimum Humidity 9    
Precipitation  
Precipitation 0.00 in 0.02 in 0.35 in (1919)
Month to date precipitation 0.01 0.33  
Year to date precipitation 7.76 13.95  
Sea Level Pressure  
Sea Level Pressure 29.91 in    
Wind  
Wind Speed 8 mph (South)    
Max Wind Speed 17 mph    
Max Gust Speed 25 mph    
Visibility 10 miles    
Events      
T = Trace of Precipitation, MM = Missing Value Source: NWS Daily Summary

Daily Weather History Graph

Daily Weather History Graph

Search for Another Location

Airport or City:

Astronomy

Oct. 13, 2019 Rise Set
Actual Time 6:57 AM MDT 6:16 PM MDT
Civil Twilight 6:30 AM MDT 6:42 PM MDT
Nautical Twilight 6:00 AM MDT 7:13 PM MDT
Astronomical Twilight 5:29 AM MDT 7:43 PM MDT
Moon 6:38 PM MDT (10/13) 6:34 AM MDT (10/13)
Length of Visible Light 12h 11m
Length of Day
11h 18m
Full, 100% of the Moon is Illuminated
Oct 13
Full
Oct 13
Full
Oct 21
Last Quarter
Oct 27
New
Nov 4
First Quarter

Hourly Weather History & Observations

Time (MDT) Temp. Windchill Dew Point Humidity Pressure Visibility Wind Dir Wind Speed Gust Speed Precip Events Conditions
12:53 AM 25.0 °F 18.1 °F 3.0 °F 39% 29.89 in 10.0 mi SSW 5.8 mph - N/A   Clear
1:53 AM 26.1 °F 18.4 °F 3.9 °F 39% 29.88 in 10.0 mi SW 6.9 mph - N/A   Clear
2:53 AM 25.0 °F 19.3 °F 3.9 °F 41% 29.88 in 10.0 mi SW 4.6 mph - N/A   Clear
3:53 AM 26.1 °F 18.4 °F 5.0 °F 41% 29.89 in 10.0 mi SW 6.9 mph - N/A   Clear
4:53 AM 24.1 °F 16.0 °F 5.0 °F 44% 29.91 in 10.0 mi SW 6.9 mph - N/A   Clear
5:53 AM 27.0 °F 19.5 °F 5.0 °F 39% 29.94 in 10.0 mi WSW 6.9 mph - N/A   Clear
6:53 AM 27.0 °F 18.0 °F 3.9 °F 37% 29.98 in 10.0 mi SW 9.2 mph - N/A   Clear
7:53 AM 34.0 °F 27.2 °F 8.1 °F 34% 29.99 in 10.0 mi West 8.1 mph - N/A   Clear
8:53 AM 43.0 °F 37.7 °F 8.1 °F 24% 29.99 in 10.0 mi West 9.2 mph - N/A   Clear
9:53 AM 52.0 °F - 9.0 °F 18% 29.99 in 10.0 mi West 8.1 mph - N/A   Clear
10:53 AM 61.0 °F - 10.0 °F 13% 29.96 in 10.0 mi WNW 5.8 mph - N/A   Clear
11:53 AM 66.9 °F - 10.9 °F 11% 29.94 in 10.0 mi Variable 4.6 mph - N/A   Unknown
12:53 PM 73.0 °F - 17.1 °F 12% 29.93 in 10.0 mi North - - N/A   Clear
1:53 PM 73.9 °F - 16.0 °F 11% 29.89 in 10.0 mi SE 9.2 mph - N/A   Clear
2:53 PM 75.0 °F - 14.0 °F 10% 29.87 in 10.0 mi SSE 9.2 mph - N/A   Clear
3:53 PM 75.0 °F - 14.0 °F 10% 29.86 in 10.0 mi SE 9.2 mph - N/A   Clear
4:53 PM 75.0 °F - 12.9 °F 9% 29.88 in 10.0 mi SE 10.4 mph - N/A   Clear
5:53 PM 69.1 °F - 14.0 °F 12% 29.88 in 10.0 mi ESE 9.2 mph - N/A   Clear
6:53 PM 59.0 °F - 14.0 °F 17% 29.92 in 10.0 mi SE 10.4 mph - N/A   Clear
7:53 PM 55.0 °F - 15.1 °F 21% 29.92 in 10.0 mi SSE 12.7 mph - N/A   Clear
8:53 PM 55.0 °F - 19.9 °F 25% 29.90 in 10.0 mi SSE 15.0 mph - N/A   Clear
9:53 PM 54.0 °F - 30.9 °F 41% 29.89 in 10.0 mi SSE 8.1 mph - N/A   Clear
10:53 PM 54.0 °F - 32.0 °F 43% 29.87 in 10.0 mi South 13.8 mph - N/A   Clear
11:53 PM 46.9 °F - 32.0 °F 56% 29.86 in 10.0 mi ENE 5.8 mph - N/A   Clear